Satellite-Ground Cal/Val Region Overpasses Predictions

Prediction of Satellite NPP Overpassing Cal/Val Region: PacNW

Region Location: (Latitude: 10.00, Longitude: 139.50) to (Latitude: 22.70, Longitude: 165.60).

Table of predicted overpasses for the next 14.0 days since TLE Epoch: 2/8/2015
Interval Starting Time Starting Location Ending Time Ending Location
1 02/08/2015 14:52:12 ( 22.65, 163.49) 02/08/2015 14:55:47 ( 10.03, 160.49)
2 02/09/2015 03:42:47 ( 10.04, 145.66) 02/09/2015 03:46:22 ( 22.66, 142.67)
3 02/09/2015 14:36:19 ( 11.57, 165.60) 02/09/2015 14:36:45 ( 10.04, 165.25)
4 02/09/2015 16:14:40 ( 22.65, 142.87) 02/09/2015 16:18:15 ( 10.03, 139.87)
5 02/10/2015 03:23:44 ( 10.03, 150.42) 02/10/2015 03:27:19 ( 22.66, 147.42)
6 02/10/2015 15:55:37 ( 22.66, 147.62) 02/10/2015 15:59:12 ( 10.04, 144.63)
7 02/11/2015 03:04:42 ( 10.03, 155.17) 02/11/2015 03:08:17 ( 22.65, 152.18)
8 02/11/2015 15:36:35 ( 22.67, 152.38) 02/11/2015 15:40:10 ( 10.04, 149.39)
9 02/12/2015 02:45:40 ( 10.02, 159.93) 02/12/2015 02:49:15 ( 22.64, 156.94)
10 02/12/2015 15:17:32 ( 22.67, 157.14) 02/12/2015 15:21:07 ( 10.05, 154.14)
11 02/13/2015 02:26:37 ( 10.02, 164.69) 02/13/2015 02:30:13 ( 22.70, 161.68)
12 02/13/2015 14:58:30 ( 22.68, 161.89) 02/13/2015 15:02:05 ( 10.05, 158.90)
13 02/14/2015 03:49:05 ( 10.02, 144.06) 02/14/2015 03:52:40 ( 22.64, 141.07)
14 02/14/2015 14:40:40 ( 18.40, 165.60) 02/14/2015 14:43:02 ( 10.06, 163.66)
15 02/14/2015 16:20:57 ( 22.67, 141.27) 02/14/2015 16:23:01 ( 15.39, 139.51)
16 02/15/2015 03:30:02 ( 10.02, 148.82) 02/15/2015 03:33:37 ( 22.64, 145.83)
17 02/15/2015 16:01:55 ( 22.67, 146.03) 02/15/2015 16:05:30 ( 10.05, 143.03)
18 02/16/2015 03:11:00 ( 10.02, 153.58) 02/16/2015 03:14:35 ( 22.64, 150.58)
19 02/16/2015 15:42:52 ( 22.67, 150.78) 02/16/2015 15:46:27 ( 10.05, 147.79)
20 02/17/2015 02:51:57 ( 10.02, 158.33) 02/17/2015 02:55:32 ( 22.64, 155.34)
21 02/17/2015 15:23:50 ( 22.67, 155.54) 02/17/2015 15:27:25 ( 10.05, 152.55)
22 02/18/2015 02:32:55 ( 10.02, 163.09) 02/18/2015 02:36:30 ( 22.64, 160.10)
23
